Location: Bad Rothenbrunn
(47.2167°N, 11.2167°E)
Time: 10:44:38
(UTC+00:00)

Cosmos 1777 Rocket - Pass Details

Date: 03 March 2021
Orbit: 759 x 775 km, 74.0° (Epoch: 22 April)

Event Time Altitude Azimuth Distance (km) Brightness Sun altitude
Rises 18:27:48 0° 341° (NNW) 3,249 7.6 -15.1°
Reaches altitude 10° 18:30:16 10° 347° (NNW) 2,316 6.7 -15.5°
Maximum altitude 18:35:22 49° 62° (ENE) 989 4.2 -16.4°
Enters shadow 18:38:06 25° 124° (SE) 1,499 5.0 -16.8°
